Zurück zum Katalog

FENGYUN 1C DEB

AktivSSO
NORAD 31160·DEBRIS·🇨🇳 China

Gestartet May 10, 1999 von Taiyuan Satellite Launch Center

Loading…

Nächste Überflüge (nächste 24 Stunden)

TLE

AktuellSource: Space-Track

Epoche: Sep 14, 2026, 09:39 UTC

1 31160U 99025BHN 26257.40255797 -.00000104  00000-0 -40080-4 0  9990
2 31160  99.0485 315.9523 0056821 216.0582 143.6744 13.99679874734558

Verfolge FENGYUN 1C DEB in Echtzeit mit AllMySat

Download on the App Store